[[{"header":{"parameterUnit":"m.s-1","parameterCategory":1,"la1":30.2991,"la2":30.254,"lo1":-89.0895,"lo2":-89.0444,"dy":0.0017,"dx":0.0017,"nx":28,"ny":28,"refTime":"2024-05-09T21:00:00:Z","depth":0,"parameterNumber":2,"parameterNumberName":"U-component_of_WINDS"},"data":[0,0,0,0,0,0,0,0,0,0,0,0,0,0,0,0,0,0,0,0,0,0,0,0,0,0,0,0,0,0,0,0,0,0,0,0,0,0,0,0,0,0,0,0,0,0,0,0,0,0,0,0,0,0,0,0,0,0,1.6569,1.657,0,1.6657,1.6658,1.6659,1.6635,1.6633,1.6631,1.6629,1.672,1.6724,1.6728,0,0,0,0,0,0,0,0,0,0,0,0,0,1.6383,1.6386,1.6569,1.657,1.6572,1.6657,1.6658,1.6659,1.6635,1.6633,1.6631,1.6629,1.6719,1.6724,1.6729,0,0,0,0,0,0,0,0,0,0,0,0,0,1.6466,1.6388,1.6569,1.657,1.6571,1.6656,1.6658,1.6659,1.6635,1.6633,1.663,1.6628,1.6717,1.6723,1.6729,1.682,0,0,1.6748,1.6751,0,0,0,0,0,0,0,0,1.6462,1.6473,1.6569,1.657,1.6571,1.6632,1.6625,1.6713,1.6636,1.6611,1.6629,1.6626,1.6693,1.6701,1.6723,1.6825,1.6829,1.6749,1.6752,1.6755,1.6757,0,0,0,0,0,0,0,1.6456,1.6469,1.6604,1.657,1.6571,1.6566,1.6575,1.6642,1.6666,1.6613,1.6611,1.6622,1.6693,1.6718,1.6725,1.683,1.6748,1.6754,1.6758,1.676,1.701,1.7013,0,0,0,0,0,0,1.6449,1.6465,1.6601,1.6607,1.6509,1.6572,1.6582,1.6615,1.6665,1.667,1.6624,1.662,1.6708,1.6718,1.6729,1.6839,1.6755,1.6761,1.6764,1.7008,1.7011,1.7014,0,0,0,0,0,0,1.6445,1.6461,1.6598,1.6535,1.6552,1.6578,1.6616,1.6618,1.6642,1.6674,1.6678,1.6644,1.6707,1.672,1.6798,1.6841,1.6763,1.6769,1.7004,1.7009,1.7013,1.7059,0,0,0,0,0,0,1.644,1.646,1.6495,1.6536,1.6556,1.6665,1.6618,1.6622,1.6653,1.6649,1.6694,1.6699,1.6706,1.6789,1.6804,1.6848,1.6774,1.7,1.7006,1.7011,1.7054,1.7065,1.7074,0,0,0,0,0,1.6433,1.6505,1.6497,1.6513,1.6599,1.6668,1.6679,1.6685,1.6656,1.6692,1.6712,1.6697,1.6834,1.6797,1.6814,1.6861,1.6997,1.7004,1.7011,1.7049,1.7063,1.7074,0,0,0,0,0,0,1.6468,1.651,1.6502,1.6588,1.6625,1.6663,1.6708,1.6699,1.6744,1.6739,1.6745,1.6755,1.6835,1.6856,1.6813,1.6952,1.6912,1.6922,1.6935,1.6948,1.6958,1.6951,1.6779,0,0,0,0,0,1.6486,1.6537,1.6571,1.6645,1.6663,1.6683,1.6713,1.6714,1.6752,1.6768,1.6793,1.6831,1.6882,1.6916,1.6965,1.7057,1.7066,1.7097,1.7107,1.7115,1.7124,1.7174,1.7189,1.7036,1.7036,1.7036,0,0,1.6523,1.6552,1.6585,1.6652,1.6681,1.6734,1.6696,1.6754,1.6794,1.6777,1.6851,1.6872,1.6914,1.6999,1.7038,1.7019,1.7169,1.7124,1.713,1.7135,1.7183,1.7197,1.721,1.7041,1.704,1.7039,0,0,1.6618,1.6646,1.671,1.6739,1.6782,1.6794,1.6809,1.685,1.6862,1.6938,1.6926,1.6973,1.7062,1.7093,1.712,1.7227,1.7216,1.7243,1.7296,1.7344,1.7356,1.7367,1.7405,1.7419,1.7252,1.7252,1.7252,0,1.6659,1.6739,1.6744,1.6804,1.6834,1.682,1.6885,1.6913,1.697,1.6992,1.6969,1.708,1.7108,1.72,1.7226,1.7248,1.7267,1.7238,1.7354,1.7365,1.7375,1.7412,1.7426,1.7255,1.7255,1.7254,1.7254,0,1.6788,1.6843,1.689,1.6945,1.6981,1.7043,1.7057,1.7093,1.7091,1.7106,1.7183,1.7216,1.7271,1.7293,1.7293,1.7386,1.7372,1.7352,1.7312,1.7392,1.7427,1.7441,1.7259,1.7258,1.7257,1.7257,0,0,1.6907,1.6964,1.6981,1.7006,1.7053,1.7096,1.7158,1.7211,1.7242,1.7282,1.7334,1.7409,1.7391,1.7422,1.7424,1.7467,1.755,1.7442,1.7443,1.7461,1.7655,1.767,1.7686,1.7543,1.7545,1.7547,1.7651,0,1.7007,1.7115,1.7121,1.7219,1.7271,1.7258,1.7312,1.7347,1.7362,1.7409,1.7426,1.7479,1.7451,1.7469,1.7511,1.7531,1.7589,1.7524,1.7592,1.7594,1.7582,1.7704,1.772,1.7817,1.7665,1.7667,1.7669,0,1.7137,1.7181,1.7284,1.7323,1.7345,1.7393,1.7443,1.7488,1.7527,1.7535,1.757,1.7566,1.763,1.7588,1.7676,1.7631,1.7659,1.7673,1.7677,1.7684,1.7636,1.7715,1.7848,1.7862,1.769,1.7688,1.7687,0,1.7215,1.7299,1.7372,1.7393,1.7441,1.7475,1.7497,1.7533,1.7565,1.7609,1.763,1.768,1.7708,1.7748,1.7759,1.7727,1.7847,1.7805,1.7856,1.7856,1.7882,1.788,1.8022,1.7899,1.7899,1.7899,1.7899,0,1.7325,1.7389,1.7407,1.7452,1.7523,1.753,1.76,1.7619,1.7652,1.77,1.7693,1.7739,1.775,1.7798,1.7807,1.7878,1.7891,1.79,1.7901,1.7901,1.79,1.7919,1.7913,1.7903,1.7902,1.7901,1.7901,0,1.7424,1.7438,1.7517,1.7555,1.7566,1.7617,1.765,1.7694,1.7708,1.777,1.7785,1.7808,1.7864,1.7878,1.7946,1.7951,1.8036,1.8031,1.8023,1.8023,1.8073,1.8068,1.8232,1.8254,1.8117,1.8119,1.812,0,1.7493,1.7542,1.7586,1.7618,1.764,1.7692,1.7724,1.7733,1.7767,1.7815,1.7853,1.7908,1.7953,1.8043,1.8066,1.8118,1.8114,1.8168,1.8122,1.812,1.8116,1.8113,1.8118,1.8177,1.8179,1.818,1.8181,0,1.7616,1.762,1.7667,1.7717,1.7756,1.7796,1.7834,1.7861,1.7874,1.7913,1.797,1.8005,1.8074,1.8129,1.8181,1.8203,1.8195,1.8195,1.821,1.821,1.8203,1.8207,1.8047,1.8191,1.819,1.819,1.8189,1.8189,1.7702,1.7745,1.7782,1.7835,1.7864,1.79,1.7943,1.7962,1.801,1.8066,1.8068,1.8131,1.8169,1.8237,1.8263,1.8312,1.8296,1.8317,1.8322,1.8327,1.8332,1.8195,1.8322,1.8321,1.8321,1.8321,1.8321,0,1.7824,1.7848,1.7896,1.7949,1.7991,1.7978,1.802,1.8056,1.811,1.8146,1.819,1.8256,1.831,1.8337,1.839,1.8424,1.8422,1.8438,1.8436,1.8441,1.8343,1.8325,1.8439,1.8439,1.8439,1.8439,1.8439,1.8439,1.7893,1.7964,1.7974,1.806,1.8083,1.8144,1.8169,1.8202,1.823,1.8304,1.8349,1.8366,1.8398,1.8454,1.8502,1.8509,1.8529,1.8548,1.8552,1.846,1.8448,1.8437,1.842,1.8552,1.8552,1.8646,1.8647,1.8648]},{"header":{"parameterUnit":"m.s-1","parameterCategory":1,"la1":30.2991,"la2":30.254,"lo1":-89.0895,"lo2":-89.0444,"dy":0.0017,"dx":0.0017,"nx":28,"ny":28,"refTime":"2024-05-09T21:00:00:Z","depth":0,"parameterNumber":3,"parameterNumberName":"V-component_of_WINDS"},"data":[0,0,0,0,0,0,0,0,0,0,0,0,0,0,0,0,0,0,0,0,0,0,0,0,0,0,0,0,0,0,0,0,0,0,0,0,0,0,0,0,0,0,0,0,0,0,0,0,0,0,0,0,0,0,0,0,0,0,3.2211,3.2212,0,3.228,3.2281,3.2282,3.2274,3.2273,3.2272,3.2271,3.2338,3.2341,3.2343,0,0,0,0,0,0,0,0,0,0,0,0,0,3.2067,3.207,3.2211,3.2212,3.2213,3.228,3.2281,3.2282,3.2275,3.2273,3.2272,3.2271,3.2337,3.234,3.2344,0,0,0,0,0,0,0,0,0,0,0,0,0,3.2132,3.2071,3.2211,3.2217,3.2218,3.228,3.2281,3.2282,3.2275,3.2273,3.2272,3.227,3.2336,3.234,3.2344,3.2402,0,0,3.2357,3.2359,0,0,0,0,0,0,0,0,3.2129,3.2138,3.2215,3.2217,3.2218,3.2267,3.2255,3.2322,3.2275,3.2253,3.2271,3.2269,3.2315,3.2321,3.2338,3.2405,3.2408,3.2357,3.236,3.2362,3.2363,0,0,0,0,0,0,0,3.2124,3.2135,3.2238,3.2216,3.2218,3.2215,3.2222,3.2268,3.2292,3.2255,3.2255,3.2263,3.2316,3.2334,3.2339,3.2409,3.2357,3.2361,3.2363,3.2365,3.2528,3.2529,0,0,0,0,0,0,3.2119,3.2131,3.2236,3.224,3.2169,3.2219,3.2227,3.2253,3.2292,3.2296,3.2265,3.2263,3.2327,3.2334,3.2341,3.2412,3.2361,3.2365,3.2368,3.2526,3.2528,3.253,0,0,0,0,0,0,3.2116,3.2128,3.2233,3.2186,3.2199,3.2223,3.2252,3.2255,3.2273,3.2299,3.2303,3.2278,3.2326,3.2335,3.2387,3.2414,3.2367,3.2371,3.2524,3.2526,3.2529,3.2554,0,0,0,0,0,0,3.2112,3.2127,3.2151,3.2186,3.2201,3.2279,3.2254,3.2258,3.2281,3.2279,3.2313,3.2317,3.2326,3.2381,3.2392,3.2419,3.2374,3.2521,3.2525,3.2528,3.2551,3.2557,3.2562,0,0,0,0,0,3.2107,3.2154,3.2152,3.2165,3.2231,3.2281,3.2289,3.2299,3.2283,3.2306,3.2323,3.2316,3.241,3.2387,3.2398,3.2427,3.252,3.2524,3.2528,3.2548,3.2556,3.2562,0,0,0,0,0,0,3.2119,3.2159,3.2157,3.2218,3.2246,3.228,3.2309,3.2307,3.234,3.2337,3.2346,3.2354,3.2406,3.2422,3.2396,3.2485,3.2462,3.2469,3.2474,3.2481,3.2487,3.2482,3.2378,0,0,0,0,0,3.213,3.2168,3.22,3.225,3.2265,3.2285,3.2306,3.2312,3.2341,3.2353,3.2373,3.2401,3.2436,3.2459,3.2494,3.2553,3.256,3.2578,3.2584,3.2589,3.2595,3.2627,3.2635,3.2543,3.2543,3.2543,0,0,3.215,3.2177,3.22,3.2253,3.2276,3.2315,3.2295,3.2336,3.2364,3.2359,3.2409,3.2425,3.2456,3.2512,3.2538,3.2527,3.2621,3.2594,3.2598,3.2601,3.2632,3.264,3.2648,3.2546,3.2546,3.2545,0,0,3.2208,3.2232,3.2277,3.2301,3.2336,3.2349,3.2359,3.2393,3.2404,3.2456,3.2452,3.2485,3.2546,3.2568,3.2588,3.2654,3.2649,3.2664,3.2695,3.2726,3.2733,3.274,3.2763,3.2772,3.267,3.267,3.267,0,3.2229,3.2289,3.23,3.2342,3.2365,3.2363,3.2408,3.2429,3.2473,3.2488,3.2476,3.2553,3.2573,3.2634,3.2651,3.2666,3.2678,3.2661,3.2732,3.2738,3.2745,3.2767,3.2776,3.2672,3.2671,3.2671,3.2671,0,3.2313,3.2354,3.2385,3.243,3.2456,3.2499,3.2515,3.2541,3.2543,3.2557,3.2609,3.2634,3.2673,3.2687,3.269,3.2749,3.2741,3.273,3.2707,3.2755,3.2776,3.2785,3.2674,3.2673,3.2673,3.2672,0,0,3.2381,3.2431,3.2443,3.2463,3.2501,3.2532,3.2575,3.2614,3.2636,3.2666,3.2701,3.2753,3.2743,3.2765,3.277,3.2797,3.2847,3.2783,3.2783,3.2794,3.2913,3.2921,3.2931,3.2844,3.2846,3.2847,3.2911,0,3.2443,3.252,3.2531,3.2598,3.2636,3.2634,3.2671,3.2698,3.2711,3.2744,3.2758,3.2795,3.2779,3.2793,3.282,3.2836,3.2872,3.2831,3.2876,3.2878,3.2869,3.2942,3.2951,3.301,3.2919,3.292,3.2921,0,3.2525,3.2559,3.2631,3.2665,3.2681,3.2714,3.2751,3.2783,3.2812,3.282,3.2845,3.2847,3.2889,3.2864,3.2922,3.2894,3.2913,3.2924,3.2926,3.2931,3.2903,3.2949,3.3029,3.3037,3.2935,3.2933,3.2933,0,3.2568,3.2631,3.2683,3.27,3.274,3.2763,3.2781,3.2809,3.2832,3.2864,3.2879,3.2915,3.2934,3.2961,3.2972,3.2953,3.3029,3.3005,3.3036,3.3036,3.3052,3.3051,3.3136,3.3064,3.3064,3.3064,3.3064,0,3.2636,3.2679,3.2702,3.2734,3.2782,3.2794,3.2841,3.2857,3.2883,3.2916,3.2916,3.2947,3.2959,3.2992,3.3,3.3047,3.3055,3.3062,3.3064,3.3062,3.3062,3.3075,3.3071,3.3066,3.3066,3.3065,3.3065,0,3.2692,3.2709,3.2765,3.2799,3.2808,3.2842,3.2871,3.29,3.2914,3.2956,3.2967,3.2987,3.3025,3.3039,3.3085,3.309,3.3144,3.3142,3.3135,3.3135,3.3166,3.3163,3.3262,3.3276,3.3195,3.3196,3.3196,0,3.2734,3.2768,3.2806,3.2829,3.2848,3.2886,3.291,3.2921,3.2946,3.2983,3.3008,3.3046,3.3078,3.3139,3.3157,3.3192,3.3191,3.3223,3.3196,3.3194,3.3191,3.3189,3.3193,3.3229,3.3229,3.323,3.3231,0,3.2807,3.2814,3.285,3.2888,3.2917,3.2948,3.2977,3.2996,3.3011,3.3039,3.3079,3.3104,3.3151,3.3189,3.3225,3.3241,3.3239,3.3239,3.3248,3.3247,3.3241,3.3245,3.3149,3.3237,3.3236,3.3236,3.3235,3.3235,3.2858,3.2888,3.292,3.2959,3.2983,3.301,3.304,3.3058,3.3092,3.3133,3.3137,3.318,3.3208,3.3256,3.3274,3.3307,3.3298,3.3311,3.3314,3.3317,3.332,3.3236,3.3314,3.3313,3.3313,3.3313,3.3313,0,3.2931,3.2952,3.2988,3.303,3.3061,3.3057,3.3089,3.3114,3.3153,3.318,3.3211,3.3257,3.3294,3.3315,3.3351,3.3373,3.3373,3.3382,3.3381,3.3385,3.3326,3.3315,3.3382,3.3382,3.3382,3.3382,3.3382,3.3382,3.2973,3.3024,3.3035,3.3097,3.3116,3.316,3.3179,3.3203,3.3225,3.3277,3.3308,3.3322,3.3347,3.3385,3.3418,3.3423,3.3436,3.3447,3.3451,3.3396,3.3389,3.3382,3.3371,3.345,3.345,3.3507,3.3507,3.3508]}]]